Location: Bratsk-Energetik
(56.3300°N, 101.7600°E)
Time: 21:32:14
(UTC+08:00)

ISS - Pass Details

Date: 13 May 2021
Orbit: 417 x 422 km, 51.6° (Epoch: 13 June)

Event Time Altitude Azimuth Distance (km) Brightness Sun altitude
Exits shadow 03:25:39 - 263° (W) 1,893 -0.8 -10.0°
Reaches altitude 10° 03:26:40 10° 257° (WSW) 1,507 -1.4 -9.9°
Maximum altitude 03:29:41 30° 194° (SSW) 777 -2.9 -9.7°
Drops below altitude 10° 03:32:42 10° 131° (SE) 1,506 -1.0 -9.5°
Sets 03:34:56 0° 120° (ESE) 2,370 0.1 -9.3°
